Theta_e
313 312 313 312 311 313 315 316 317 315 313 313 312 312 311 309 307 306 305 304 303 302 300 302 304 308 310 310 312 313 313 312 313 311 309 308 304 305 305 305 305 305 305 305
313 314 313 313 313 314 314 315 315 314 312 312 312 312 312 310 309 308 308 306 305 300 298 301 304 307 308 310 311 312 311 310 308 308 306 303 300 298 300 299 300 299 299 298
314 316 315 315 316 316 315 316 315 316 314 312 312 312 312 311 309 308 308 308 305 301 299 299 302 306 307 308 310 310 308 306 305 305 303 299 296 294 294 293 292 292 292 291
314 314 316 315 315 315 316 314 315 316 315 316 312 318 315 313 312 309 309 306 305 300 299 299 301 304 306 307 308 307 307 306 305 304 303 301 295 292 290 290 289 289 289 289
315 314 314 316 315 314 315 315 315 315 315 316 315 316 315 314 316 316 311 308 304 300 299 300 301 302 305 304 305 306 306 305 303 303 302 298 293 291 289 289 288 288 288 288
313 311 312 314 311 313 312 314 314 314 315 318 316 317 317 318 317 317 312 306 302 300 299 299 300 302 301 301 302 302 302 299 299 298 296 296 293 289 288 288 287 287 287 287
313 313 312 311 312 312 314 314 318 320 317 321 316 317 319 315 314 314 311 305 301 300 298 297 296 296 297 297 298 298 298 296 297 297 295 294 292 290 289 288 287 287 286 286
317 317 313 311 313 314 313 315 319 322 321 319 312 317 317 314 313 307 309 307 301 299 298 296 295 294 294 295 296 295 295 295 295 295 294 292 291 290 289 289 288 288 287 287
316 316 312 311 314 314 313 316 316 319 302 312 317 315 313 310 308 308 307 305 302 299 297 295 293 293 293 294 294 294 294 293 293 293 292 291 290 290 289 288 288 287 286 285
317 322 312 309 312 312 314 312 317 314 316 318 318 318 320 314 311 307 306 305 301 299 295 294 293 292 292 293 292 293 292 292 292 292 291 290 290 290 289 289 288 287 286 285
315 320 313 310 312 315 314 314 315 316 315 319 320 319 313 315 312 308 306 304 302 299 296 294 293 292 292 292 291 291 291 291 291 290 290 290 289 289 289 289 287 286 285 285
315 318 312 313 309 309 313 315 313 319 316 313 315 322 309 311 310 307 305 304 302 300 297 294 293 291 291 291 290 290 290 290 290 290 289 289 289 288 288 287 287 286 285 285
316 319 320 317 313 310 312 312 315 314 308 318 317 321 307 308 310 306 304 303 301 299 296 294 293 292 291 290 289 289 289 289 289 289 288 288 288 288 287 287 286 285 285 285
316 318 321 324 322 314 313 312 312 316 317 317 319 319 312 310 310 307 304 302 301 300 297 295 293 292 292 290 289 289 289 289 289 288 288 288 287 287 287 286 286 285 285 285
317 320 318 319 317 314 313 312 313 315 316 318 319 317 316 314 308 306 304 302 300 300 298 296 295 293 292 290 289 289 288 289 288 288 288 287 287 287 286 286 285 285 285 285
314 319 318 320 318 317 318 313 313 314 315 315 316 317 313 312 310 305 305 304 302 301 299 298 296 294 292 290 290 288 288 288 288 288 287 287 287 286 286 286 285 285 284 284
315 317 317 323 317 317 321 320 318 315 313 313 315 315 311 312 311 306 304 304 304 302 300 298 296 294 293 291 290 289 288 288 288 288 287 287 287 286 286 286 285 285 284 284
312 317 317 322 318 323 319 315 318 319 318 314 312 314 308 311 310 306 303 304 303 302 300 298 297 295 293 291 290 290 289 289 289 287 287 287 287 287 286 286 286 285 284 284
315 315 317 321 323 320 317 307 313 317 319 317 317 315 314 305 305 304 301 302 303 301 300 299 297 296 295 292 291 291 289 289 288 288 287 287 287 286 286 286 286 285 284 284
314 318 318 316 323 325 313 304 303 311 320 311 314 315 315 305 311 312 301 299 299 300 299 299 298 298 296 294 293 290 289 288 287 288 288 288 287 287 287 286 286 285 285 285
315 317 318 320 322 317 304 297 302 318 314 294 300 308 303 308 310 304 298 299 297 297 298 299 298 297 296 295 294 290 289 288 290 289 288 288 288 287 287 287 286 286 285 284
314 316 316 316 319 322 301 301 311 303 295 296 301 300 301 298 296 296 295 293 292 293 294 295 294 295 296 295 294 291 291 292 291 290 289 288 288 287 287 286 286 285 284 283
312 309 311 313 313 301 295 300 296 295 295 300 301 298 295 294 294 292 290 290 290 290 290 293 293 292 293 295 295 293 294 292 292 291 290 289 288 287 287 286 285 284 283 282
301 299 307 307 302 296 294 296 294 292 293 293 296 295 292 292 290 289 288 287 287 287 287 290 291 289 290 292 293 294 292 291 290 290 289 288 287 287 286 285 284 284 282 281
301 300 302 301 295 296 297 295 296 297 291 291 291 293 292 289 289 288 287 286 285 286 287 289 289 289 290 290 290 290 289 289 289 288 287 286 285 284 283 282 282 282 281 280
295 300 304 305 299 302 301 297 295 296 295 290 290 290 288 289 288 287 286 286 286 286 287 287 287 287 287 287 286 286 286 286 287 286 284 284 283 282 281 280 279 277 276 276
Wind_Speed
2 4 7 12 9 6 3 3 4 5 4 5 8 8 10 11 8 9 10 11 13 13 15 18 16 15 16 16 17 18 21 23 26 27 27 26 26 23 22 20 18 18 17 16
3 8 10 7 7 8 8 7 8 5 4 5 6 11 9 6 12 15 17 15 15 8 9 17 19 18 19 20 20 22 24 26 23 24 23 25 27 24 24 23 21 21 21 21
8 7 6 8 5 6 6 6 5 8 1 3 4 7 8 8 11 10 15 12 11 18 16 11 20 23 21 23 25 29 28 21 22 23 25 28 28 28 28 26 27 24 24 23
9 9 4 6 7 8 7 6 6 6 1 5 4 8 6 6 10 9 19 14 17 15 11 15 21 25 26 26 27 25 25 24 23 24 29 32 33 32 28 29 28 26 24 23
9 8 8 14 9 9 7 2 3 3 3 1 4 5 6 8 11 16 17 15 15 18 18 17 22 26 28 24 26 26 25 23 23 25 29 32 33 33 31 30 28 26 24 22
5 2 6 8 2 5 7 5 6 5 3 4 11 9 5 9 12 12 8 11 15 16 15 17 24 30 27 25 25 26 26 26 28 29 30 33 36 36 34 31 30 27 24 22
2 4 3 4 5 5 4 7 2 3 1 8 6 9 16 7 8 9 10 12 15 16 16 16 18 25 31 28 28 29 30 28 29 29 30 32 34 34 34 32 31 28 25 22
11 7 13 7 9 8 8 9 6 7 5 5 1 7 6 12 10 6 8 15 15 15 15 17 22 25 28 32 32 32 33 31 30 30 31 31 31 31 30 29 28 26 24 22
8 7 3 2 5 13 6 8 4 2 2 1 6 8 8 6 8 3 6 13 17 17 16 17 21 25 29 34 35 36 34 32 31 33 32 31 30 29 29 27 25 24 22 22
6 2 3 2 5 2 7 5 3 1 3 6 5 6 10 5 13 7 8 9 9 12 14 14 21 24 28 32 35 35 35 36 35 34 34 33 32 29 28 26 25 24 22 21
6 4 0 5 7 13 5 5 4 4 5 5 5 8 6 11 11 13 13 14 15 16 15 15 19 24 27 31 35 36 36 36 35 34 34 32 31 28 27 26 25 24 22 20
13 4 4 8 4 5 2 7 7 6 7 5 2 21 5 3 3 8 11 14 13 15 15 14 19 23 27 31 34 37 38 37 36 35 33 32 30 29 29 28 27 25 23 20
10 5 2 5 4 3 7 8 17 1 3 13 5 17 3 1 3 6 9 9 11 13 12 13 17 23 28 29 31 34 38 39 37 36 34 32 31 31 30 29 27 26 24 23
13 6 14 20 7 7 8 12 14 18 9 9 24 26 3 3 6 6 8 9 12 14 15 15 14 21 27 28 30 31 34 38 38 37 36 35 34 33 31 29 28 27 25 24
14 12 9 19 4 6 7 13 20 23 31 14 29 25 19 14 12 10 7 8 11 14 17 19 18 17 25 27 29 31 34 39 39 37 37 37 34 32 30 29 29 27 26 24
6 12 12 19 15 10 7 12 24 26 26 26 29 33 7 8 5 8 12 15 16 17 19 18 15 19 24 27 30 30 31 37 39 38 38 35 34 33 32 32 30 29 27 26
12 11 7 19 11 7 8 36 21 19 21 22 25 37 9 17 16 10 11 15 19 19 19 18 17 19 25 28 29 31 30 35 39 39 38 36 36 35 35 34 32 32 31 28
4 14 6 12 7 12 14 6 26 29 29 23 25 28 9 14 15 13 10 16 17 17 16 16 18 23 26 29 30 30 33 36 40 39 38 37 37 37 37 34 34 33 32 30
18 12 6 6 12 9 16 5 9 14 28 27 29 30 25 7 1 6 8 8 12 12 13 19 24 26 28 34 35 35 35 36 36 38 39 39 38 38 36 37 37 35 34 31
17 21 15 6 8 13 7 0 1 6 21 15 21 26 23 10 10 20 7 8 10 15 20 20 27 29 31 33 35 35 32 34 33 37 39 38 38 38 38 38 37 36 34 32
10 11 19 18 11 5 4 4 2 9 7 3 0 8 8 10 12 4 9 5 5 8 18 25 28 27 26 32 34 30 32 33 37 35 35 35 36 36 34 34 35 34 32 31
9 8 6 8 7 10 5 2 9 3 4 2 2 2 5 4 3 5 7 8 9 9 13 20 21 21 24 30 32 30 32 31 30 29 29 29 30 31 32 32 32 31 30 31
4 4 5 7 5 4 6 5 2 3 2 2 0 1 5 6 2 5 6 7 7 12 16 22 26 25 21 23 25 28 28 25 24 24 25 26 26 27 29 30 30 29 29 31
3 2 2 2 2 2 2 3 3 3 2 2 2 3 5 5 6 6 6 7 7 12 17 22 24 22 20 21 22 21 21 19 20 23 24 25 25 26 27 27 27 29 30 31
2 7 6 3 3 3 6 6 3 3 4 5 3 1 4 7 5 6 6 6 7 14 17 24 24 22 21 20 19 16 13 16 20 22 23 24 24 25 24 24 25 25 25 24
4 6 5 5 6 3 3 9 8 5 3 5 5 3 2 4 6 5 6 9 14 16 19 19 18 18 18 17 16 15 14 15 18 21 22 22 22 21 20 20 18 14 12 12
Wind_Direction
208 123 203 201 196 205 225 214 243 261 230 145 217 249 239 218 218 214 211 200 196 188 169 169 170 164 160 158 157 161 158 154 152 148 142 137 127 125 122 122 124 122 119 114
76 230 226 206 210 225 247 260 268 285 204 166 258 248 254 200 222 211 208 210 198 156 164 165 170 169 169 163 163 163 160 152 150 153 148 139 131 126 125 123 119 118 118 114
175 214 196 191 228 196 226 205 233 227 243 267 285 270 248 242 224 215 227 216 192 176 167 165 173 178 174 169 164 155 153 161 165 161 150 138 131 126 123 120 116 117 115 112
224 228 187 166 217 176 238 211 218 241 159 245 152 284 250 242 243 214 229 199 190 174 164 165 174 180 179 174 168 168 168 171 172 169 159 155 147 135 131 128 124 120 118 114
229 181 189 222 213 168 228 159 191 213 197 332 280 290 262 217 248 248 240 212 187 176 168 170 174 175 180 175 172 175 174 174 172 173 167 158 147 139 137 133 129 124 121 118
209 167 160 195 85 161 153 78 41 39 69 259 225 216 199 239 234 257 238 195 172 170 168 163 163 173 170 174 175 174 169 163 164 166 166 161 153 147 143 141 134 131 129 125
181 202 173 140 98 21 120 103 304 317 306 245 217 232 246 247 248 228 225 187 173 166 161 159 157 164 171 175 177 173 170 165 172 172 172 167 160 156 151 149 144 141 138 135
196 246 172 193 184 170 190 162 167 221 216 260 57 238 250 226 250 280 235 184 164 166 168 166 165 167 171 178 179 177 174 166 171 173 171 169 164 161 157 156 151 149 148 145
179 247 107 153 155 155 201 208 186 10 59 346 223 276 300 243 271 291 186 168 178 171 169 166 165 169 175 181 183 180 175 172 172 172 169 169 168 164 162 159 159 155 152 147
204 205 19 355 87 35 154 163 82 59 222 252 258 252 234 213 238 218 211 184 177 173 165 170 171 174 180 184 184 182 178 174 173 172 172 171 171 172 168 166 165 162 159 157
188 158 293 133 208 174 156 185 190 147 167 214 278 256 204 217 220 207 207 193 183 179 175 175 176 175 178 184 185 184 182 177 175 175 174 172 173 174 172 172 171 169 166 165
201 131 165 203 270 258 216 180 164 176 217 236 203 262 176 130 266 195 204 196 189 182 176 176 172 169 176 184 185 186 186 183 181 179 178 178 177 178 177 178 175 175 173 174
172 206 102 317 347 325 205 214 214 245 61 228 196 263 357 65 199 207 191 186 181 174 169 170 173 179 183 185 186 186 188 189 185 183 183 182 181 182 184 183 181 180 180 181
159 172 205 231 231 152 197 197 205 205 229 218 235 257 173 198 228 209 210 184 178 180 178 178 184 189 188 187 185 186 190 194 188 187 187 186 187 188 189 188 188 187 189 188
169 212 200 237 192 159 179 199 204 207 225 210 252 241 239 233 219 215 188 166 178 187 189 192 190 188 185 183 185 189 191 195 194 192 193 194 192 193 192 194 195 194 195 198
181 228 209 243 235 219 214 212 216 219 232 236 250 260 127 232 223 181 195 186 193 198 201 197 191 186 187 185 187 186 188 193 196 198 200 199 197 196 198 200 199 199 202 204
172 197 176 241 207 226 263 238 220 224 229 225 235 244 197 244 242 219 211 197 202 199 195 190 187 182 186 190 186 186 187 194 199 204 204 203 201 200 204 205 203 207 208 209
169 201 199 246 136 216 246 210 220 228 238 226 245 255 209 235 237 231 200 194 202 199 186 182 180 180 180 180 184 185 191 200 204 205 208 208 205 206 207 208 210 214 214 215
198 196 216 231 225 261 277 183 165 189 244 231 236 248 250 197 98 256 210 207 204 184 178 176 177 172 171 182 189 192 193 200 199 203 208 211 210 209 211 212 215 218 219 221
204 214 210 188 232 237 280 270 225 116 252 172 212 237 236 146 225 250 167 155 156 162 165 167 172 174 176 186 190 184 186 190 195 205 213 213 213 214 215 219 221 222 224 230
199 212 220 224 234 254 228 233 263 162 250 308 268 246 149 203 232 168 145 116 119 139 157 173 168 169 176 182 186 177 184 194 209 211 212 213 215 218 223 224 225 227 228 231
186 183 198 219 239 242 181 34 171 225 336 283 322 181 150 133 67 109 114 124 125 122 137 156 147 161 177 181 181 180 192 205 208 210 212 215 217 220 223 226 228 229 230 231
205 192 178 191 207 185 187 179 196 144 200 290 222 35 132 118 125 119 123 129 134 139 138 151 146 147 156 171 184 185 200 203 204 206 211 213 215 217 221 222 225 225 227 230
224 199 164 125 207 224 233 271 250 152 124 40 57 108 142 133 149 126 130 136 130 130 130 139 140 145 156 174 184 194 194 197 200 203 207 209 211 213 216 219 223 224 224 226
177 141 174 273 244 316 248 226 244 154 90 62 22 151 153 142 152 149 135 128 118 127 138 150 153 159 167 177 185 192 194 195 198 204 204 205 209 212 212 217 223 226 234 240
195 173 180 214 177 150 204 196 191 185 183 169 142 98 89 148 149 121 132 142 146 149 155 157 160 159 164 171 181 191 195 198 200 199 202 205 209 212 217 221 222 231 245 244